Regional Weather Roundup
Issued by NWS

Home | Current Version | Previous Version | Graphics & Text | Print | Product List | Glossary On
Versions: 1 2 3 4 5 6 7 8 9 10 11 12 13 14 15 16 17 18 19 20 21 22 23 24 25 26 27 28 29 30 31 32 33 34 35 36 37 38 39 40 41 42 43 44 45 46 47 48 49 50
776
ASUS44 KJAN 011210
RWRMS

MISSISSIPPI HOURLY WEATHER ROUNDUP
NATIONAL WEATHER SERVICE JACKSON MS
700 AM CDT FRI AUG 01 2014

NOTE: "FAIR: INDICATES FEW OR NO CLOUDS BELOW 12,000 FEET WITH NO
SIGNIFICANT WEATHER AND/OR OBSTRUCTIONS TO VISIBILITY.

MSZ001>002-007>008-010>013-018>021-025>028-034>036-011300-
NORTHWEST MISSISSIPPI

CITY           SKY/WX    TMP DP  RH WIND       PRES   REMARKS
CLARKSDALE     CLOUDY    68  68 100 CALM      30.06R
CLEVELAND      CLOUDY    70  69  98 N3        30.04R
GREENWOOD      CLOUDY    70  68  93 CALM      30.04R FOG
6HR MIN TEMP:  68; 6HR MAX TEMP:  70; 6HR PCP: TRACE;

GREENVILLE     CLOUDY    71  68  90 E5        30.03S FOG
6HR MIN TEMP:  70; 6HR MAX TEMP:  71;

GRENADA        FAIR      68  68 100 CALM      30.05R
OLIVE BRANCH   MOCLDY    68  68 100 NE7       30.08R FOG
OXFORD         FAIR      68  66  94 CALM      30.07R
TUNICA         PTSUNNY   70  68  94 NE3       30.07R
$$

MSZ003>006-009-014>017-022>024-029>033-037>039-011300-
NORTHEAST MISSISSIPPI

CITY           SKY/WX    TMP DP  RH WIND       PRES   REMARKS
BELMONT        FAIR      65  64  94 CALM      30.06R
COLUMBUS AFB   MOCLDY    68  65  92 CALM      30.04R
6HR MIN TEMP:  67; 6HR MAX TEMP:  68;

CORINTH        FAIR      66  64  94 CALM      30.06S FOG
GOLDN TRIANGLE PTCLDY    66  63  88 CALM      30.04R
STARKVILLE     FAIR      64  63  94 CALM      30.04R FOG
TUPELO         MOCLDY    69  65  86 NE3       30.04R
6HR MIN TEMP:  68; 6HR MAX TEMP:  70;

$$

MSZ040-058-011300-
CENTRAL MISSISSIPPI

CITY           SKY/WX    TMP DP  RH WIND       PRES   REMARKS
JACKSON INTL   CLOUDY    72  68  87 CALM      30.03R
6HR MIN TEMP:  70; 6HR MAX TEMP:  74; 6HR PCP: TRACE;

JACKSON HAWKNS CLOUDY    72  65  78 CALM      30.04R
6HR MIN TEMP:  72; 6HR MAX TEMP:  75; 6HR PCP: TRACE;

MERIDIAN KEY   CLEAR     66  63  90 CALM      30.03R
6HR MIN TEMP:  64; 6HR MAX TEMP:  68; 6HR PCP:  0.02;

MERIDIAN NAS   PTCLDY    64  61  90 CALM      30.03R
6HR MIN TEMP:  63; 6HR MAX TEMP:  67;

RAYMOND        FAIR      68  63  83 E3        30.02F
VICKSBURG      RAIN      71  67  87 E6        30.00F
6HR MIN TEMP:  71; 6HR MAX TEMP:  74; 6HR PCP:  0.11;

$$

MSZ059>079-011300-
SOUTH MISSISSIPPI

CITY           SKY/WX    TMP DP  RH WIND       PRES   REMARKS
BROOKHAVEN     FAIR      68  66  94 CALM      30.04F FOG
COLUMBIA       LGT RAIN  70  68  94 N3        30.02R
HATTIESBURG    RAIN      71  67  87 CALM      30.04R FOG
6HR MIN TEMP:  70; 6HR MAX TEMP:  72; 6HR PCP:  0.02;

MCCOMB         CLOUDY    71  66  84 E5        30.01S
6HR MIN TEMP:  70; 6HR MAX TEMP:  73; 6HR PCP: TRACE;

NATCHEZ        CLOUDY    70  66  88 CALM      30.00R
6HR MIN TEMP:  70; 6HR MAX TEMP:  73; 6HR PCP:  0.03;

PINE BELT      CLOUDY    70  64  83 W5        30.04R
6HR MIN TEMP:  70; 6HR MAX TEMP:  72;

$$

MSZ080>082-011300-
COASTAL MISSISSIPPI

CITY           SKY/WX    TMP DP  RH WIND       PRES   REMARKS
BAY ST LOUIS   MOCLDY   N/A N/A N/A CALM      30.00
BILOXI         CLOUDY    74  66  75 NE7       29.99R
6HR MIN TEMP:  73; 6HR MAX TEMP:  76;

PASCAGOULA     CLOUDY    71  69  93 CALM      29.99R
6HR MIN TEMP:  68; 6HR MAX TEMP:  71;

GULFPORT       CLOUDY    77  66  68 NW3       30.00R
6HR MIN TEMP:  77; 6HR MAX TEMP:  79;

$$



USA.gov is the U.S. government's official web portal to all federal, state and local government web resources and services.